Weather History for KAFK - September, 2012

Change the Weather History Date:

Thursday, September 27, 2012

  Actual Average (KSDA) Record (KSDA)
Temperature  
Mean Temperature 60 °F -  
Max Temperature 76 °F 75 °F 94 °F (1956)
Min Temperature 45 °F 48 °F 35 °F (2012)
Degree Days  
Heating Degree Days 4    
Growing Degree Days 10 (Base 50)    
Moisture  
Dew Point 35 °F    
Average Humidity 44    
Maximum Humidity 76    
Minimum Humidity 19    
Precipitation  
Precipitation 0.00 in - - ()
Sea Level Pressure  
Sea Level Pressure 30.16 in    
Wind  
Wind Speed 0 mph (NNE)    
Max Wind Speed 8 mph    
Max Gust Speed -    
Visibility 10 miles    
Events      
Averages and records for this station are not official NWS values.
T = Trace of Precipitation, MM = Missing Value Source: NWS Daily Summary

Daily Weather History Graph

Daily Weather History Graph

Search for Another Location

Airport or City:

Trip Planner

Search our weather history database for the weather conditions in past years. The results will help you decide how hot, cold, wet, or windy it might be!

Date:

Astronomy

Sep. 27, 2012 Rise Set
Actual Time 7:16 AM CDT 7:11 PM CDT
Civil Twilight 6:49 AM CDT 7:38 PM CDT
Nautical Twilight 6:17 AM CDT 8:10 PM CDT
Astronomical Twilight 5:45 AM CDT 8:42 PM CDT
Moon 5:43 PM CDT (9/27) 4:46 AM CDT (9/27)
Length of Visible Light 12h 49m
Length of Day
11h 54m
Waxing Gibbous, 94% of the Moon is Illuminated
Sep 27
Waxing Gibbous
Sep 29
Full
Oct 8
Last Quarter
Oct 15
New
Oct 21
First Quarter

Hourly Weather History & Observations

Time (CDT) Temp. Dew Point Humidity Pressure Visibility Wind Dir Wind Speed Gust Speed Precip Events Conditions
12:15 AM 56.3 °F 38.8 °F 52% 30.15 in 10.0 mi Calm Calm - N/A   Clear
12:35 AM 55.8 °F 39.0 °F 53% 30.15 in 10.0 mi Calm Calm - N/A   Clear
12:55 AM 55.6 °F 39.2 °F 54% 30.16 in 10.0 mi Calm Calm - N/A   Clear
1:15 AM 52.5 °F 39.2 °F 61% 30.16 in 10.0 mi Calm Calm - N/A   Clear
1:35 AM 54.5 °F 39.7 °F 57% 30.16 in 10.0 mi Calm Calm - N/A   Clear
1:55 AM 53.2 °F 40.1 °F 61% 30.15 in 10.0 mi Calm Calm - N/A   Clear
2:15 AM 49.5 °F 39.6 °F 69% 30.14 in 10.0 mi Calm Calm - N/A   Clear
2:35 AM 50.5 °F 39.4 °F 66% 30.15 in 10.0 mi Calm Calm - N/A   Clear
2:55 AM 49.8 °F 39.2 °F 67% 30.16 in 10.0 mi Calm Calm - N/A   Clear
3:15 AM 50.9 °F 39.9 °F 66% 30.16 in 10.0 mi Calm Calm - N/A   Clear
3:35 AM 50.0 °F 39.7 °F 68% 30.17 in 10.0 mi Calm Calm - N/A   Clear
3:55 AM 48.6 °F 39.0 °F 70% 30.16 in 10.0 mi Calm Calm - N/A   Clear
4:15 AM 46.0 °F 38.8 °F 76% 30.16 in 10.0 mi Calm Calm - N/A   Clear
4:35 AM 45.7 °F 37.8 °F 74% 30.16 in 10.0 mi Calm Calm - N/A   Clear
4:55 AM 45.7 °F 37.0 °F 72% 30.17 in 10.0 mi Calm Calm - N/A   Clear
5:15 AM 45.3 °F 36.5 °F 71% 30.18 in 10.0 mi Calm Calm - N/A   Clear
5:35 AM 45.1 °F 35.6 °F 69% 30.19 in 10.0 mi Calm Calm - N/A   Clear
5:55 AM 46.6 °F 34.9 °F 64% 30.19 in 10.0 mi Calm Calm - N/A   Clear
6:15 AM 47.3 °F 34.7 °F 62% 30.19 in 10.0 mi Calm Calm - N/A   Clear
6:35 AM 46.4 °F 34.7 °F 64% 30.18 in 10.0 mi Calm Calm - N/A   Clear
6:55 AM 47.1 °F 34.3 °F 61% 30.18 in 10.0 mi Calm Calm - N/A   Clear
7:15 AM 45.1 °F 34.3 °F 66% 30.18 in 10.0 mi Calm Calm - N/A   Clear
7:35 AM 45.9 °F 34.3 °F 64% 30.18 in 10.0 mi Calm Calm - N/A   Clear
7:55 AM 45.1 °F 35.2 °F 68% 30.19 in 10.0 mi Calm Calm - N/A   Clear
8:15 AM 45.7 °F 36.9 °F 71% 30.19 in 10.0 mi Calm Calm - N/A   Clear
8:35 AM 46.4 °F 38.8 °F 75% 30.18 in 10.0 mi Calm Calm - N/A   Clear
8:55 AM 47.5 °F 39.2 °F 73% 30.18 in 10.0 mi Calm Calm - N/A   Clear
9:15 AM 49.8 °F 39.7 °F 68% 30.18 in 10.0 mi Calm Calm - N/A   Clear
9:35 AM 53.8 °F 39.0 °F 57% 30.19 in 10.0 mi Calm Calm - N/A   Clear
9:55 AM 55.9 °F 39.4 °F 54% 30.20 in 10.0 mi Calm Calm - N/A   Clear
10:15 AM 58.5 °F 39.7 °F 50% 30.21 in 10.0 mi Calm Calm - N/A   Clear
10:35 AM 61.9 °F 39.9 °F 44% 30.22 in 10.0 mi Calm Calm - N/A   Clear
10:55 AM 64.9 °F 40.5 °F 41% 30.23 in 10.0 mi Calm Calm - N/A   Clear
11:15 AM 66.0 °F 40.6 °F 39% 30.22 in 10.0 mi Calm Calm - N/A   Clear
11:35 AM 68.4 °F 41.9 °F 38% 30.21 in 10.0 mi Calm Calm - N/A   Clear
11:55 AM 69.8 °F 40.3 °F 34% 30.20 in 10.0 mi Calm Calm - N/A   Clear
12:15 PM 70.7 °F 40.5 °F 33% 30.19 in 10.0 mi Calm Calm - N/A   Clear
12:35 PM 71.8 °F 37.0 °F 28% 30.19 in 10.0 mi NNE 5.8 mph - N/A   Clear
1:15 PM 72.7 °F 35.8 °F 26% 30.18 in 10.0 mi Calm Calm - N/A   Clear
1:35 PM 73.0 °F 34.5 °F 24% 30.17 in 10.0 mi Calm Calm - N/A   Clear
1:55 PM 73.8 °F 34.0 °F 23% 30.16 in 10.0 mi Calm Calm - N/A   Clear
2:15 PM 74.8 °F 32.4 °F 21% 30.15 in 10.0 mi Calm Calm - N/A   Clear
2:35 PM 75.2 °F 32.5 °F 21% 30.14 in 10.0 mi North 3.5 mph - N/A   Clear
2:55 PM 75.4 °F 32.2 °F 21% 30.14 in 10.0 mi North 8.1 mph - N/A   Clear
3:15 PM 75.6 °F 31.6 °F 20% 30.14 in 10.0 mi Calm Calm - N/A   Clear
3:35 PM 75.7 °F 31.3 °F 20% 30.14 in 10.0 mi Calm Calm - N/A   Clear
3:55 PM 75.6 °F 31.5 °F 20% 30.13 in 10.0 mi Calm Calm - N/A   Clear
4:15 PM 76.1 °F 31.8 °F 20% 30.13 in 10.0 mi Calm Calm - N/A   Clear
4:35 PM 76.3 °F 32.0 °F 20% 30.13 in 10.0 mi North 3.5 mph - N/A   Clear
4:55 PM 75.9 °F 31.6 °F 20% 30.13 in 10.0 mi Calm Calm - N/A   Clear
5:35 PM 75.2 °F 30.2 °F 19% 30.12 in 10.0 mi Calm Calm - N/A   Clear
5:55 PM 74.8 °F 29.8 °F 19% 30.12 in 10.0 mi Calm Calm - N/A   Clear
6:15 PM 73.9 °F 32.0 °F 21% 30.12 in 10.0 mi Calm Calm - N/A   Clear
6:35 PM 72.5 °F 30.0 °F 21% 30.12 in 10.0 mi Calm Calm - N/A   Clear
6:55 PM 69.8 °F 30.9 °F 24% 30.12 in 10.0 mi Calm Calm - N/A   Clear
7:15 PM 68.9 °F 30.0 °F 24% 30.12 in 10.0 mi Calm Calm - N/A   Clear
7:35 PM 68.7 °F 27.0 °F 21% 30.12 in 10.0 mi Calm Calm - N/A   Clear
7:55 PM 67.3 °F 28.4 °F 23% 30.13 in 10.0 mi Calm Calm - N/A   Clear
8:15 PM 66.2 °F 27.3 °F 23% 30.13 in 10.0 mi Calm Calm - N/A   Clear
8:35 PM 65.3 °F 27.0 °F 24% 30.13 in 10.0 mi Calm Calm - N/A   Clear
8:55 PM 61.7 °F 29.1 °F 29% 30.14 in 10.0 mi Calm Calm - N/A   Clear
9:35 PM 61.2 °F 28.9 °F 30% 30.14 in 10.0 mi Calm Calm - N/A   Clear
9:55 PM 61.7 °F 29.1 °F 29% 30.14 in 10.0 mi Calm Calm - N/A   Clear
10:15 PM 62.4 °F 28.8 °F 28% 30.14 in 10.0 mi Calm Calm - N/A   Clear
10:35 PM 62.6 °F 29.3 °F 28% 30.15 in 10.0 mi Calm Calm - N/A   Clear
10:55 PM 61.7 °F 29.1 °F 29% 30.15 in 10.0 mi Calm Calm - N/A   Clear
11:15 PM 61.9 °F 29.3 °F 29% 30.15 in 10.0 mi Calm Calm - N/A   Clear
11:35 PM 61.0 °F 29.3 °F 30% 30.15 in 10.0 mi Calm Calm - N/A   Clear